Location: Blanot
(47.1713°N, 4.2340°E)
Time: 04:22:51
(UTC+00:00)

Cosmos 1190 Rocket - Pass Details

Date: 14 July 2020
Orbit: 756 x 781 km, 74.1° (Epoch: 06 August)

Event Time Altitude Azimuth Distance (km) Brightness Sun altitude
Exits shadow 02:06:38 22° 222° (SW) 1,621 5.1 -14.5°
Maximum altitude 02:09:55 59° 296° (WNW) 883 4.3 -14.2°
Drops below altitude 10° 02:15:07 10° 16° (NNE) 2,321 7.7 -13.7°
Sets 02:17:34 0° 20° (NNE) 3,256 8.9 -13.5°
